This is the latest recevied weather packets stored in our database for station/object OK1OBR-13. If no packets are shown the sender has not sent any weather packets the latest 1 day(s).
| Time | Temp. | Humidity | Pressure | Rain* | Wind** | Luminosity | Snow |
|---|---|---|---|---|---|---|---|
| 1777996321 | 20° C | 43% | 928.4 hPa | 0 mm | 0.45 m/s, 150° | - | - |
| 1777996261 | 20° C | 44% | 928.3 hPa | 0 mm | 0.45 m/s, 138° | - | - |
| 1777996202 | 20° C | 44% | 928.2 hPa | 0 mm | 0.45 m/s, 147° | - | - |
| 1777996143 | 20° C | 43% | 928.4 hPa | 0 mm | 0.45 m/s, 149° | - | - |
| 1777996084 | 20° C | 44% | 928.4 hPa | 0 mm | 0.45 m/s, 129° | - | - |
| 1777995961 | 20° C | 44% | 928.3 hPa | 0 mm | 0.45 m/s, 162° | - | - |
| 1777995901 | 20.56° C | 43% | 928.5 hPa | 0 mm | 0.45 m/s, 158° | - | - |
| 1777995842 | 20.56° C | 43% | 928.6 hPa | 0 mm | 0.45 m/s, 152° | - | - |
| 1777995782 | 20.56° C | 43% | 928.4 hPa | 0 mm | 0.89 m/s, 120° | - | - |
| 1777995721 | 20° C | 43% | 928.7 hPa | 0 mm | 0.89 m/s, 149° | - | - |
| 1777995661 | 20° C | 43% | 928.5 hPa | 0 mm | 0.89 m/s, 164° | - | - |
| 1777995600 | 20° C | 43% | 928.6 hPa | 0 mm | 0.89 m/s, 154° | - | - |
| 1777995545 | 20° C | 43% | 928.5 hPa | 0 mm | 0.89 m/s, 145° | - | - |
| 1777995481 | 20° C | 44% | 928.3 hPa | 0 mm | 0.89 m/s, 140° | - | - |
| 1777995421 | 20° C | 45% | 928.4 hPa | 0 mm | 0.45 m/s, 120° | - | - |
| 1777995361 | 20° C | 45% | 928.5 hPa | 0 mm | 0.45 m/s, 129° | - | - |
| 1777995301 | 20° C | 45% | 928.3 hPa | 0 mm | 0.89 m/s, 139° | - | - |
| 1777995241 | 20.56° C | 44% | 928.3 hPa | 0 mm | 0.89 m/s, 142° | - | - |
| 1777995182 | 20.56° C | 44% | 928.3 hPa | 0 mm | 0.89 m/s, 142° | - | - |
| 1777995121 | 20.56° C | 44% | 928.3 hPa | 0 mm | 0.89 m/s, 145° | - | - |
| 1777995061 | 20.56° C | 44% | 928.4 hPa | 0 mm | 0.89 m/s, 129° | - | - |
| 1777995000 | 20.56° C | 44% | 928.3 hPa | 0 mm | 0.89 m/s, 116° | - | - |
| 1777994941 | 20.56° C | 44% | 928.5 hPa | 0 mm | 0.89 m/s, 124° | - | - |
| 1777994880 | 20.56° C | 45% | 928.4 hPa | 0 mm | 0.89 m/s, 138° | - | - |
| 1777994821 | 20.56° C | 45% | 928.4 hPa | 0 mm | 0.89 m/s, 155° | - | - |
* Rain since midnight (hover to see other rain measurements)
** Current wind speed in m/s (hover to see current wind gust speed)